Destin, FL

3:40 PM CST on February 24, 2017 (GMT -0600)
Destin-Fort Walton Beach

Weather History for KDTS - November, 2013

Change the Weather History Date:

Thursday, November 21, 2013

  Actual Average Record
Temperature  
Mean Temperature 64 °F -  
Max Temperature 70 °F 66 °F 77 °F (2004)
Min Temperature 57 °F 51 °F 19 °F (2008)
Degree Days  
Heating Degree Days 2    
Growing Degree Days 14 (Base 50)    
Moisture  
Dew Point 57 °F    
Average Humidity 75    
Maximum Humidity 83    
Minimum Humidity 70    
Precipitation  
Precipitation 0.00 in - - ()
Sea Level Pressure  
Sea Level Pressure 30.21 in    
Wind  
Wind Speed 8 mph (NE)    
Max Wind Speed 10 mph    
Max Gust Speed 17 mph    
Visibility 10 miles    
Events Rain    
Averages and records for this station are not official NWS values.
T = Trace of Precipitation, MM = Missing Value Source: NWS Daily Summary

Daily Weather History Graph

Daily Weather History Graph

Search for Another Location

Airport or City:

Trip Planner

Search our weather history database for the weather conditions in past years. The results will help you decide how hot, cold, wet, or windy it might be!

Date:

Astronomy

Nov. 21, 2013 Rise Set
Actual Time 6:16 AM CST 4:46 PM CST
Civil Twilight 5:51 AM CST 5:12 PM CST
Nautical Twilight 5:21 AM CST 5:41 PM CST
Astronomical Twilight 4:53 AM CST 6:10 PM CST
Moon 8:20 PM CST (11/21) 9:24 AM CST (11/21)
Length of Visible Light 11h 21m
Length of Day
10h 29m
Waning Gibbous, 85% of the Moon is Illuminated
Nov 21
Waning Gibbous
Nov 25
Last Quarter
Dec 2
New
Dec 9
First Quarter
Dec 17
Full

Hourly Weather History & Observations

Time (CST) Temp. Dew Point Humidity Pressure Visibility Wind Dir Wind Speed Gust Speed Precip Events Conditions
12:53 AM 59.0 °F 51.1 °F 75% 30.17 in 10.0 mi ENE 8.1 mph - N/A   Clear
1:48 AM 59.0 °F 51.8 °F 77% 30.19 in 10.0 mi ENE 9.2 mph - N/A   Mostly Cloudy
1:53 AM 59.0 °F 51.1 °F 75% 30.19 in 10.0 mi ENE 8.1 mph 17.3 mph N/A   Mostly Cloudy
2:53 AM 59.0 °F 51.1 °F 75% 30.19 in 10.0 mi NE 9.2 mph - N/A   Overcast
3:53 AM 57.9 °F 50.0 °F 75% 30.19 in 10.0 mi NE 10.4 mph - N/A   Overcast
4:53 AM 57.9 °F 50.0 °F 75% 30.20 in 10.0 mi ENE 10.4 mph - 0.00 in   Overcast
5:53 AM 57.9 °F 48.9 °F 72% 30.21 in 10.0 mi ENE 10.4 mph - N/A   Overcast
6:53 AM 59.0 °F 50.0 °F 72% 30.22 in 10.0 mi ENE 6.9 mph - N/A   Overcast
7:53 AM 59.0 °F 51.1 °F 75% 30.24 in 10.0 mi NE 8.1 mph - N/A   Overcast
8:53 AM 61.0 °F 52.0 °F 72% 30.24 in 10.0 mi ENE 6.9 mph - N/A   Overcast
9:53 AM 62.1 °F 53.1 °F 72% 30.25 in 10.0 mi NE 8.1 mph - N/A   Overcast
10:53 AM 64.9 °F 55.9 °F 73% 30.23 in 10.0 mi ENE 5.8 mph - N/A   Overcast
11:53 AM 66.9 °F 57.0 °F 70% 30.22 in 10.0 mi NNE 6.9 mph - N/A   Overcast
12:53 PM 68.0 °F 57.9 °F 70% 30.19 in 10.0 mi North 5.8 mph - N/A   Overcast
1:53 PM 66.9 °F 60.1 °F 79% 30.19 in 10.0 mi NNW 5.8 mph - 0.00 in Rain Light Rain
2:53 PM 68.0 °F 59.0 °F 73% 30.17 in 10.0 mi North 6.9 mph - 0.00 in   Overcast
3:18 PM 70.0 °F 60.1 °F 71% 30.17 in 10.0 mi North 6.9 mph - N/A   Overcast
3:53 PM 69.1 °F 60.1 °F 73% 30.17 in 10.0 mi North 5.8 mph - N/A   Mostly Cloudy
4:53 PM 68.0 °F 60.1 °F 76% 30.18 in 10.0 mi NNW 6.9 mph - N/A   Overcast
5:53 PM 66.9 °F 61.0 °F 81% 30.19 in 10.0 mi NNE 4.6 mph - N/A   Overcast
6:53 PM 69.1 °F 62.1 °F 78% 30.20 in 10.0 mi NE 5.8 mph - N/A   Mostly Cloudy
7:53 PM 69.1 °F 61.0 °F 75% 30.21 in 10.0 mi ENE 8.1 mph - N/A   Overcast
8:53 PM 68.0 °F 61.0 °F 78% 30.23 in 10.0 mi ENE 6.9 mph - N/A   Overcast
9:06 PM 68.0 °F 61.0 °F 78% 30.23 in 10.0 mi ENE 8.1 mph - N/A   Overcast
9:14 PM 68.0 °F 61.0 °F 78% 30.23 in 10.0 mi NE 8.1 mph - N/A   Overcast
9:38 PM 68.0 °F 61.0 °F 78% 30.23 in 10.0 mi NE 6.9 mph - N/A   Overcast
9:48 PM 66.2 °F 60.8 °F 83% 30.23 in 10.0 mi NE 6.9 mph - N/A   Overcast
9:53 PM 68.0 °F 61.0 °F 78% 30.23 in 10.0 mi NE 6.9 mph - N/A   Overcast
10:53 PM 68.0 °F 60.1 °F 76% 30.23 in 10.0 mi East 9.2 mph - N/A   Mostly Cloudy
11:53 PM 66.9 °F 61.0 °F 81% 30.21 in 10.0 mi ENE 8.1 mph - N/A   Scattered Clouds